17ème Jogging de Manaihant - Herve 17/05/2019 - 8,6 km
Mise à jour le : 20/05/2019 à 08:59
Classement définitif, aucune correction possible
Place Nom Prénom Dossard Temps Vitesse Allure Place. Cat. Catégorie
1 MICHEL LUC 481 29:51 17,29 3:28 1 Vétérans 1
2 DUMOULIN MAXIME 250 30:07 17,13 3:30 1 Séniors
3 ROORDA CHRISTOPHE 826 30:25 16,96 3:32 2 Séniors
4 TECOMENNE MARTIN 859 31:33 16,35 3:40 3 Séniors
5 MERCENIER ADRIEN 935 31:37 16,32 3:40 4 Séniors
6 TELLER RENAUD 649 31:41 16,29 3:41 5 Séniors
7 BARTHOLEMY THIERRY 35 32:04 16,09 3:43 2 Vétérans 1
8 TELLER BENJA 648 32:10 16,04 3:44 6 Séniors
9 GENREITH JEREMY 850 32:13 16,02 3:44 7 Séniors
10 DAEL FABRICE 185 32:13 16,02 3:44 3 Vétérans 1
11 LECLERCQ JORDAN 429 32:36 15,83 3:47 8 Séniors
12 GIRRETZ FRANCOIS 932 32:51 15,71 3:49 9 Séniors
13 MAES MARTIN 925 32:52 15,70 3:49 10 Séniors
14 BOTTE LUDOVIC 103 32:57 15,66 3:49 4 Vétérans 1
15 PEUTAT SEBASTIEN 911 33:01 15,63 3:50 11 Séniors
16 OLEFS ALPHA 245 33:03 15,61 3:50 12 Séniors
17 DORTHU OLIVIER 839 33:12 15,54 3:51 5 Vétérans 1
18 GROSJEAN ANTHONY 319 33:22 15,46 3:52 13 Séniors
19 LAHAYE JULIAN 875 33:25 15,44 3:53 1 Espoirs Garçons
20 RADERMECKER ARTHUR 272 33:27 15,43 3:53 2 Espoirs Garçons
21 LODOMEZ OLIVIER 454 33:40 15,33 3:54 14 Séniors
22 BERGENHUIZEN EDDY 74 33:42 15,31 3:55 1 Vétérans 2
23 HUPPERETZ PATRICK 823 33:44 15,30 3:55 6 Vétérans 1
24 PIRENNE ANTOINE 538 33:49 15,26 3:55 3 Espoirs Garçons
25 HOGGE GAETAN 349 33:49 15,26 3:55 15 Séniors
26 D'AFFNAY JEAN-FRANCOIS 162 33:53 15,23 3:56 7 Vétérans 1
27 WALRAFF WALLY 678 34:00 15,18 3:57 2 Vétérans 2
28 COLLING JEAN-YVES 449 34:06 15,13 3:57 16 Séniors
29 NELISSEN GILL 815 34:19 15,04 3:59 17 Séniors
30 ANDRES GABY 2 34:20 15,03 3:59 1 Ainées 2
31 GOMZE MICHEL 5 34:25 14,99 4:00 3 Vétérans 2
32 STOLLENBERG JORDI 885 34:28 14,97 4:00 18 Séniors
33 HAZARD GAETAN 852 34:30 14,96 4:00 19 Séniors
34 BINAME JULIEN 828 34:32 14,94 4:00 20 Séniors
35 WYAIME ANTOINE 874 34:39 14,89 4:01 21 Séniors
36 LOCHT MICHEL 455 34:44 14,86 4:02 8 Vétérans 1
37 NICOLAS FRANCIS 549 34:44 14,86 4:02 4 Vétérans 2
38 REMACLE ROMAIN 273 34:44 14,86 4:02 22 Séniors
39 JANSSEN NICOLAS 360 34:45 14,85 4:02 23 Séniors
40 VANHULST BENOIT 662 34:59 14,75 4:04 24 Séniors
41 JACOB-PAQUAY ERIC 373 35:02 14,73 4:04 9 Vétérans 1
42 FISCHER RAPHAEL 292 35:09 14,68 4:05 25 Séniors
43 BEUVENS FREDERIC 63 35:11 14,67 4:05 10 Vétérans 1
44 WEUSTEN CEDRIC 444 35:13 14,65 4:05 26 Séniors
45 DERU FABIAN 233 35:15 14,64 4:05 11 Vétérans 1
46 VERVIER ARNAUD 428 35:35 14,50 4:08 27 Séniors
47 JEWASINSKI MICHEL 634 35:36 14,49 4:08 12 Vétérans 1
48 AGNOLI PIERRE 40 35:40 14,47 4:08 28 Séniors
49 BONGARTZ JULIEN 865 35:41 14,46 4:08 29 Séniors
50 DEWANDELEER BENJAMIN 329 36:00 14,33 4:11 30 Séniors
51 DONNEAU PIERRE 315 36:02 14,32 4:11 31 Séniors
52 FLAMAND MICHAEL 257 36:05 14,30 4:11 32 Séniors
53 LEONARD PHILIPPE 824 36:07 14,29 4:11 5 Vétérans 2
54 BRIQUET NATHALIE 86 36:10 14,27 4:12 2 Ainées 2
55 SOMJA MANU 903 36:15 14,23 4:12 13 Vétérans 1
56 OLIESLAGER GILLES 820 36:16 14,23 4:13 33 Séniors
57 DAMBLON PATRICK 167 36:18 14,21 4:13 6 Vétérans 2
58 DELHAUSSE KEVIN 148 36:26 14,16 4:14 34 Séniors
59 LAMBOT FREDERIC 389 36:28 14,15 4:14 35 Séniors
60 BOMBOIRE BRUNO 888 36:30 14,14 4:14 14 Vétérans 1
61 HANSEZ ANNE 175 36:31 14,13 4:14 1 Dames
62 SCHOONBROODT TONY 849 36:33 14,12 4:15 36 Séniors
63 NADENOEN OLIVIER 487 36:50 14,01 4:16 15 Vétérans 1
64 DHEUR MAXIME 141 36:51 14,00 4:17 37 Séniors
65 DHEUR SEBASTIEN 216 36:53 13,99 4:17 38 Séniors
66 CALOZET DONATIEN 934 36:55 13,98 4:17 39 Séniors
67 BAGUETTE THIBAUT 821 36:55 13,98 4:17 40 Séniors
68 DESSOUROUX JEAN 227 36:58 13,96 4:17 1 Vétérans 3
69 LONGTON GILLES 858 36:59 13,95 4:18 41 Séniors
70 PRINCIPATO BENOIT 864 37:12 13,87 4:19 42 Séniors
71 BOSCOLO MANUEL 72 37:15 13,85 4:19 16 Vétérans 1
72 FONTAINE SERGE 291 37:21 13,81 4:20 17 Vétérans 1
73 DONNEAU BENOIT 311 37:24 13,80 4:20 43 Séniors
74 WANSART PIERRE 879 37:25 13,79 4:21 18 Vétérans 1
75 MICHAT JACKY 450 37:25 13,79 4:21 2 Vétérans 3
76 DORTU ARNAUD 324 37:28 13,77 4:21 44 Séniors
77 SOMJA VICTOR 527 37:34 13,74 4:22 3 Vétérans 3
78 PESSER ALINE 11 37:42 13,69 4:23 3 Ainées 2
79 JANDRAIN FRANCOIS 381 37:44 13,67 4:23 19 Vétérans 1
80 GEROMBOUX BERTRAND 363 37:45 13,67 4:23 45 Séniors
81 CANALES ALBERTO 130 37:49 13,64 4:23 4 Vétérans 3
82 PENAY LAURENT 917 37:51 13,63 4:24 46 Séniors
83 DETHIER GAEL 158 38:01 13,57 4:25 20 Vétérans 1
84 SPRONCK JONATHAN 638 38:05 13,55 4:25 47 Séniors
85 GALLE DAVID 938 38:06 13,54 4:25 21 Vétérans 1
86 DUMEZ JEROME 146 38:09 13,53 4:26 48 Séniors
87 WILLOT VALERY 904 38:10 13,52 4:26 22 Vétérans 1
88 PAGGEN RAPHAEL 928 38:12 13,51 4:26 23 Vétérans 1
89 LEMAIRE MICHAEL 887 38:15 13,49 4:26 24 Vétérans 1
90 LEGRAND CHRISTOPHE 204 38:18 13,47 4:27 49 Séniors
91 CHANTEUX JONATHAN 897 38:19 13,47 4:27 50 Séniors
92 NOLS FRANCOISE 493 38:25 13,43 4:28 1 Ainées 1
93 BECKERS BENOIT 12 38:33 13,38 4:28 25 Vétérans 1
94 BINET LOUIS 67 38:33 13,38 4:28 51 Séniors
95 CHARLIER COCO 939 38:34 13,38 4:29 52 Séniors
96 LOCHT PHILIPPE 305 38:39 13,35 4:29 53 Séniors
97 HUET WILLIAM 857 38:42 13,33 4:30 7 Vétérans 2
98 SCHNAKERS ARNAUD 595 38:43 13,33 4:30 54 Séniors
99 FEY CELINE 191 38:49 13,29 4:30 2 Dames
100 FASSIN JEFF 277 38:51 13,28 4:31 55 Séniors
101 ROSA HUGUES 565 38:56 13,25 4:31 26 Vétérans 1
102 THONNARD SÉVERINE 651 38:57 13,25 4:31 2 Ainées 1
103 PIRLOT BERNARD 541 38:59 13,24 4:31 56 Séniors
104 PIRENNE AURELIEN 870 39:02 13,22 4:32 57 Séniors
105 BONFOND PATRICK 868 39:07 13,19 4:32 8 Vétérans 2
106 DEMONCEAU JEAN LUC 157 39:16 13,14 4:33 9 Vétérans 2
107 HANSEZ SEBASTIEN 239 39:18 13,13 4:34 58 Séniors
108 KEVELAER BÉATRICE 361 39:19 13,12 4:34 4 Ainées 2
109 TASSET JOFFREY 907 39:21 13,11 4:34 59 Séniors
110 TASSET ROMAIN 906 39:22 13,11 4:34 4 Espoirs Garçons
111 STEPHANY CHRISTIAN 845 39:23 13,10 4:34 27 Vétérans 1
112 BURLEON QUENTIN 91 39:23 13,10 4:34 60 Séniors
113 DELHEZ FLORENTIN 212 39:24 13,10 4:34 61 Séniors
114 VARGA MICHAEL 424 39:27 13,08 4:35 62 Séniors
115 PIRENNE MARC 267 39:30 13,06 4:35 28 Vétérans 1
116 SICIM MUSTAFA 626 39:33 13,05 4:35 29 Vétérans 1
117 SCHOENMAKERS BENOIT 585 39:34 13,04 4:36 10 Vétérans 2
118 NIGOLAYE NATHAN 856 39:35 13,04 4:36 5 Espoirs Garçons
119 HEINRICHS GREGORY 346 39:44 12,99 4:37 63 Séniors
120 NAWYN BENJAMIN 16 39:46 12,98 4:37 30 Vétérans 1
121 FRANSSEN JEAN-FRANCOIS 201 39:53 12,94 4:38 31 Vétérans 1
122 EL-BALDI SAID 258 39:54 12,93 4:38 32 Vétérans 1
123 HENROTTE THIERRY 825 39:54 12,93 4:38 11 Vétérans 2
124 DODEMONT JONATHAN 919 40:06 12,87 4:39 64 Séniors
125 DUESBERG MIKE 242 40:06 12,87 4:39 65 Séniors
126 HOCK MICHAEL 468 40:07 12,86 4:39 66 Séniors
127 SPINOSA ANTONY 803 40:12 12,84 4:40 67 Séniors
128 BALAZUN ALIZEE 905 40:13 12,83 4:40 3 Dames
129 BECKERS ANAÏS 60 40:15 12,82 4:40 1 Espoirs Filles
130 SAMMI SEBASTIEN 822 40:18 12,80 4:41 33 Vétérans 1
131 MATHOUL CHRISTOPHE 443 40:27 12,76 4:42 34 Vétérans 1
132 DELVOIE FREDERIC 921 40:30 12,74 4:42 35 Vétérans 1
133 JONAS QUENTIN 922 40:31 12,73 4:42 6 Espoirs Garçons
134 SPRONCK GEOFFREY 883 40:36 12,71 4:43 36 Vétérans 1
135 JENNES JEAN-FRANCOIS 498 40:36 12,71 4:43 68 Séniors
136 DONY PHILIPPE 421 40:38 12,70 4:43 37 Vétérans 1
137 LAMBERT CHRISTOPHE 413 40:44 12,67 4:44 69 Séniors
138 SPRONCK HERVE 636 40:45 12,66 4:44 38 Vétérans 1
139 JOWAY ERIC 393 40:54 12,62 4:45 12 Vétérans 2
140 LEJEUNE FRANCOIS 916 40:54 12,62 4:45 70 Séniors
141 CORMAN ELISE 876 40:58 12,59 4:45 4 Dames
142 WATAR FRANCIS 442 40:58 12,59 4:45 39 Vétérans 1
143 GEORGES SÉBASTIEN 101 40:59 12,59 4:45 71 Séniors
144 JEROME AURELIEN 930 41:00 12,58 4:46 72 Séniors
145 PAROTTE JEAN CHRISTOPHE 851 41:07 12,55 4:46 40 Vétérans 1
146 OLIVIER LAURENT 520 41:12 12,52 4:47 41 Vétérans 1
147 FRANSSEN SEBASTIEN 809 41:15 12,51 4:47 7 Espoirs Garçons
148 STIZ OLIVIER 895 41:16 12,50 4:47 73 Séniors
149 CORTLEVEN WILLY 805 41:21 12,48 4:48 1 Vétérans 4
150 BACKAERT ALAN 829 41:21 12,48 4:48 74 Séniors
151 LEROI BENJAMIN 889 41:27 12,45 4:49 75 Séniors
152 ROOMANS CHRISTIAN 581 41:30 12,43 4:49 13 Vétérans 2
153 DELHEZ PATRICE 123 41:33 12,42 4:49 42 Vétérans 1
154 COLLIN AUDREY 863 41:38 12,39 4:50 5 Dames
155 JUNIUS ARNAUD 266 41:39 12,39 4:50 76 Séniors
156 LEJEUNE DAVID 553 41:42 12,37 4:50 43 Vétérans 1
157 DELWAIDE ANNE 209 41:44 12,36 4:51 1 Ainées 3
158 SIMAR THOMAS 602 41:46 12,35 4:51 77 Séniors
159 KOUJILI NABIL 833 41:49 12,34 4:51 8 Espoirs Garçons
160 TIMMERMANN ALEXANDRE 1 41:51 12,33 4:51 78 Séniors
161 CRASSON VINCENT 813 41:53 12,32 4:52 5 Vétérans 3
162 ETIENNE LAURE 285 41:54 12,31 4:52 6 Dames
163 WIERTZ XAVIER 4 41:54 12,31 4:52 79 Séniors
164 LODOMEZ GEOFFREY 910 41:56 12,30 4:52 80 Séniors
165 BECKERS JOEL 61 42:03 12,27 4:53 44 Vétérans 1
166 PISSART ANDY 909 42:06 12,26 4:53 81 Séniors
167 ADAM MURIELLE 54 42:07 12,25 4:53 3 Ainées 1
168 TIMMERS LAURENT 658 42:08 12,25 4:53 82 Séniors
169 LUGENS DORIAN 890 42:12 12,23 4:54 83 Séniors
170 PINCKAERS CHRISTOPHE 931 42:13 12,22 4:54 84 Séniors
171 FEY PHILIPPE 192 42:19 12,19 4:55 14 Vétérans 2
172 RIGA PHILIPPE 573 42:20 12,19 4:55 15 Vétérans 2
173 BIXHRIN JEROME 940 42:21 12,18 4:55 85 Séniors
174 LECLERCQ ANTOINE 843 42:23 12,17 4:55 9 Espoirs Garçons
175 JASPAR CHRISTIAN 383 42:25 12,16 4:55 6 Vétérans 3
176 GODDE CHRISTOPHE 293 42:26 12,16 4:56 86 Séniors
177 CHEBIL RAMI 139 42:26 12,16 4:56 45 Vétérans 1
178 NAHON SYLVIE 516 42:29 12,15 4:56 5 Ainées 2
179 JEROME CLEMENCE 929 42:33 12,13 4:56 2 Espoirs Filles
180 WILLEMS FLORENCE 901 42:35 12,12 4:57 3 Espoirs Filles
181 BRIXHE JEAN NOEL 848 42:38 12,10 4:57 16 Vétérans 2
182 THONON MARIE-PIERRE 524 42:45 12,07 4:58 7 Dames
183 DEGIVE VINCENT 15 42:50 12,05 4:58 17 Vétérans 2
184 DUMOULIN NATHAN 878 42:51 12,04 4:58 10 Espoirs Garçons
185 DEVILLE YVES 499 42:59 12,00 4:59 18 Vétérans 2
186 DE MARCO ERIC 332 43:05 11,98 5:00 46 Vétérans 1
187 DELREZ SANDRA 238 43:06 11,97 5:00 6 Ainées 2
188 RYCKEBUSCH CYRILLE 478 43:13 11,94 5:01 2 Vétérans 4
189 BOLSSENS CHRISTOPHE 467 43:13 11,94 5:01 47 Vétérans 1
190 SCHOLZEN JOANNIE 375 43:16 11,93 5:01 8 Dames
191 CHARLIER GUILLAUME 837 43:16 11,93 5:01 87 Séniors
192 DROUGUET LUCAS 920 43:17 11,92 5:01 11 Espoirs Garçons
193 BRUHL BENEDICTE 90 43:25 11,88 5:02 4 Ainées 1
194 LUCASSEN ANTOINE 872 43:29 11,87 5:03 88 Séniors
195 MOTTARD SOPHIE 8 43:33 11,85 5:03 5 Ainées 1
196 LANVALLEE BENJAMIN 871 43:34 11,84 5:03 89 Séniors
197 TELLER ALICIA 646 43:35 11,84 5:04 9 Dames
198 CARABIN MARTINE 131 43:35 11,84 5:04 7 Ainées 2
199 DUMOULIN DAVID 898 43:37 11,83 5:04 90 Séniors
200 ALLELYN BENJAMIN 933 43:41 11,81 5:04 91 Séniors
201 TERF MARINE 300 43:43 11,80 5:05 4 Espoirs Filles
202 TERF MICHEL 486 43:44 11,80 5:05 19 Vétérans 2
203 GILET ARNAUD 892 43:45 11,79 5:05 48 Vétérans 1
204 COLSON CLEMENT 896 44:03 11,71 5:07 92 Séniors
205 DOSSERAY ROGER 244 44:05 11,70 5:07 3 Vétérans 4
206 HURLET LUCIEN 351 44:06 11,70 5:07 7 Vétérans 3
207 BOUCHOMS DELPHINE 325 44:14 11,66 5:08 10 Dames
208 SCAPIN ROBERT 810 44:14 11,66 5:08 20 Vétérans 2
209 MAURAGE SOPHIE 855 44:16 11,66 5:08 11 Dames
210 GAUTHY SERGE 501 44:22 11,63 5:09 49 Vétérans 1
211 DUYSENS JEANNOT 262 44:33 11,58 5:10 8 Vétérans 3
212 LARBUISSON JESSICA 376 44:40 11,55 5:11 12 Dames
213 SCHYNS BASTIEN 819 44:41 11,55 5:11 93 Séniors
214 FRIPPIAT JULIEN 918 44:42 11,54 5:11 94 Séniors
215 HEUSSCHEN DOMINIQUE 359 44:47 11,52 5:12 21 Vétérans 2
216 ROUFOSSE BASILE 860 44:48 11,52 5:12 95 Séniors
217 TEMPELS ALAIN 627 44:49 11,51 5:12 22 Vétérans 2
218 VERCAMMEN MICHEL 427 44:49 11,51 5:12 50 Vétérans 1
219 DELHEZ JEAN-FRANCOIS 155 44:50 11,51 5:12 96 Séniors
220 HABETS LEON 840 44:51 11,50 5:12 97 Séniors
221 MENNICKEN ROGER 494 44:54 11,49 5:13 23 Vétérans 2
222 FETTWEIS GAELLE 280 44:56 11,48 5:13 13 Dames
223 PUTZ BURKHARD 806 45:14 11,41 5:15 24 Vétérans 2
224 FRISEE MARIETTE 217 45:16 11,40 5:15 2 Ainées 3
225 JONLET LIONEL 13 45:16 11,40 5:15 98 Séniors
226 EL BALDI FATIHA 256 45:21 11,38 5:16 6 Ainées 1
227 BEAUWENS MAGALI 59 45:29 11,34 5:17 7 Ainées 1
228 TASQUIN YANNICK 298 45:33 11,33 5:17 99 Séniors
229 ARCHAMBEAU ROGER 807 45:33 11,33 5:17 9 Vétérans 3
230 CORNETTE JEAN-MICHEL 599 45:35 11,32 5:18 25 Vétérans 2
231 ALLELEYN TEDDY 55 45:35 11,32 5:18 100 Séniors
232 DEFOURNY CAROLINE 886 45:38 11,31 5:18 14 Dames
233 WINTGENS SOPHIE 884 45:40 11,30 5:18 8 Ainées 1
234 MARCHAL AMAURY 477 45:43 11,29 5:18 101 Séniors
235 LEJEUNE THOMAS 914 46:04 11,20 5:21 0 H Sans Cat
236 PIROSON CHRISTIAN 544 46:12 11,17 5:22 51 Vétérans 1
237 JOSKIN ZENAIDE 194 46:23 11,12 5:23 15 Dames
238 GILLET AURELIEN 171 46:23 11,12 5:23 102 Séniors
239 RENNOTTE RAPHAEL 869 46:28 11,10 5:24 52 Vétérans 1
240 WEYNAND HELMUT 812 46:33 11,08 5:24 4 Vétérans 4
241 CAMUS BERTRAND 100 46:47 11,03 5:26 103 Séniors
242 HILDERSON LUC 611 46:48 11,02 5:26 10 Vétérans 3
243 BOSCO CATHY 76 47:03 10,97 5:28 9 Ainées 1
244 MAWET NATHALIE 491 47:10 10,94 5:29 8 Ainées 2
245 KLINKENBERG MARIE CHRISTINE 937 47:11 10,94 5:29 9 Ainées 2
246 VOSS JEAN-LOUIS 673 47:12 10,93 5:29 11 Vétérans 3
247 DUFRASNE JEAN PIERRE 936 47:16 10,92 5:29 12 Vétérans 3
248 ANDRIEN TONY 51 47:18 10,91 5:30 26 Vétérans 2
249 COLLIN MANON 838 47:19 10,90 5:30 16 Dames
250 MERCENIER GILLES 223 47:20 10,90 5:30 104 Séniors
251 FETTWEIS THIERRY 281 47:30 10,86 5:31 13 Vétérans 3
252 DENOISIEUX CHRISTIAN 229 47:46 10,80 5:33 27 Vétérans 2
253 GOHY VALERIE 484 48:03 10,74 5:35 10 Ainées 2
254 SEVRIN MARGOT 591 48:05 10,73 5:35 5 Espoirs Filles
255 HONNAY SOPHIE 880 48:08 10,72 5:35 10 Ainées 1
256 JACQUET FANNY 853 48:08 10,72 5:35 17 Dames
257 BASTIN MARGAUX 64 48:13 10,70 5:36 18 Dames
258 CAPIER JEAN-MARIE 197 48:13 10,70 5:36 14 Vétérans 3
259 JASPART ANDRE 827 48:19 10,68 5:37 15 Vétérans 3
260 ISERENTANT GREGORY 190 48:27 10,65 5:38 105 Séniors
261 NOIRFALISE CECILE 523 48:31 10,63 5:38 11 Ainées 1
262 JURKOWSKI RAPHAEL 912 48:33 10,63 5:38 53 Vétérans 1
263 WIRTZ SOPHIE 816 48:36 10,62 5:39 19 Dames
264 BASTIN ISABELLE 62 48:37 10,61 5:39 11 Ainées 2
265 DE LEO LETIZIA 134 48:42 10,59 5:39 12 Ainées 1
266 PENASSE LAURENCE 861 48:56 10,54 5:41 13 Ainées 1
267 DUGARD JEAN MICHEL 841 48:56 10,54 5:41 28 Vétérans 2
268 DEWALQUE THIERRY 862 48:57 10,54 5:41 54 Vétérans 1
269 DUMOULIN JEAN-LUC 877 48:57 10,54 5:41 55 Vétérans 1
270 DEMOULIN VANESSA 842 48:58 10,54 5:41 14 Ainées 1
271 OUADNOUNI M'BAREK 882 48:58 10,54 5:41 29 Vétérans 2
272 BERODE JEROME 908 49:02 10,52 5:42 56 Vétérans 1
273 VANDEGAAR TONY 655 49:12 10,49 5:43 16 Vétérans 3
274 DEFOSSE PIERRE 846 49:19 10,46 5:44 106 Séniors
275 FISCHER GAELLE 247 49:28 10,43 5:45 15 Ainées 1
276 VOLDERS VINCENT 867 49:28 10,43 5:45 57 Vétérans 1
277 CARL ROGER 814 49:38 10,40 5:46 17 Vétérans 3
278 GAUTHY PIERRE 926 50:05 10,30 5:49 12 Espoirs Garçons
279 ROUFOSSE UGO 34 50:08 10,29 5:49 30 Vétérans 2
280 DIMAELE NICOLAS 894 50:11 10,28 5:50 107 Séniors
281 BAYETTO SHANIA 460 50:14 10,27 5:50 6 Espoirs Filles
282 DANTHINE YVES 831 50:17 10,26 5:50 31 Vétérans 2
283 BOTTIN JEMANR 893 50:26 10,23 5:51 108 Séniors
284 TOMOSANO ANTHONY 881 50:26 10,23 5:51 0 H Sans Cat
285 BOULANGER ORLANE 73 50:28 10,22 5:52 20 Dames
286 SIMONIS SUZANNE 619 50:31 10,21 5:52 3 Ainées 3
287 MERTES ISABELLE 844 50:48 10,16 5:54 16 Ainées 1
288 LAMBERT HENRI 533 51:01 10,11 5:55 58 Vétérans 1
289 KOCH FRANCE 891 51:02 10,11 5:56 21 Dames
290 FETTWEIS MARIE 915 51:09 10,09 5:56 22 Dames
291 BULTOT FABRICE 913 51:12 10,08 5:57 109 Séniors
292 VANDEBERG PAUL 418 51:14 10,07 5:57 5 Vétérans 4
293 MUYTERS CHRISTIAN 514 51:30 10,02 5:59 18 Vétérans 3
294 BERTRANG JULIEN 79 51:40 9,99 6:00 6 Vétérans 4
295 BRAGARD BENOIT 899 51:41 9,98 6:00 32 Vétérans 2
296 TOUSSAINT BERNARD 836 51:46 9,97 6:01 59 Vétérans 1
297 WEBER GILBERTE 682 51:47 9,96 6:01 4 Ainées 3
298 JUNKER HENRY-MARC 362 51:48 9,96 6:01 19 Vétérans 3
299 PIRARD OLIVIER 543 52:04 9,91 6:03 60 Vétérans 1
300 DEGIVE ROMANE 118 52:11 9,89 6:04 23 Dames
301 BEUVENS BIANCA 80 52:41 9,79 6:07 17 Ainées 1
302 DROOGHAAG PATRICK 253 52:42 9,79 6:07 110 Séniors
303 LAMBOT SEVERINE 900 53:17 9,68 6:11 18 Ainées 1
304 FASSOTTE GISELE 902 53:18 9,68 6:11 19 Ainées 1
305 ANCIAN JEAN PASCAL 924 53:26 9,66 6:12 33 Vétérans 2
306 BACKAERT MIKE 830 54:06 9,54 6:17 111 Séniors
307 LANSMANS FRANCOISE 200 54:20 9,50 6:19 12 Ainées 2
308 CASTELLI CATHERINE 818 54:21 9,49 6:19 24 Dames
309 MOHSSEN FAOUSIA 832 54:25 9,48 6:19 20 Ainées 1
310 HARDY JUSTINE 873 54:27 9,48 6:19 25 Dames
311 DE WALEFFE SANDRA 834 54:28 9,47 6:20 13 Ainées 2
312 MUYTERS SERGE 515 55:09 9,36 6:24 7 Vétérans 4
313 CRENIER JUSTINE 808 55:22 9,32 6:26 26 Dames
314 MARTIN JEAN MARC 835 55:31 9,29 6:27 34 Vétérans 2
315 FASSOTTE MARC 866 55:40 9,27 6:28 61 Vétérans 1
316 GROSJEAN ALAIN 420 55:58 9,22 6:30 20 Vétérans 3
317 VERITER ELISABETH 22 56:04 9,20 6:31 14 Ainées 2
318 DEFOSSE JEAN POL 847 56:18 9,16 6:32 62 Vétérans 1
319 PIEROT GUY 817 56:21 9,16 6:33 21 Vétérans 3
320 JENNES PATRICK 355 56:49 9,08 6:36 22 Vétérans 3
321 FRANCK MAURINE 927 57:24 8,99 6:40 7 Espoirs Filles
322 SCHMETZ LOUIS 804 58:53 8,76 6:50 1 Vétérans 5
323 CASSARO LOUIS 802 58:58 8,75 6:51 13 Espoirs Garçons
324 PETIT LOGAN 801 58:58 8,75 6:51 14 Espoirs Garçons
325 HENZ HELMUT 352 59:02 8,74 6:51 2 Vétérans 5
326 HERZET MARLENE 254 59:43 8,64 6:56 5 Ainées 3
327 SPABECK NOEMIE 854 59:58 8,60 6:58 27 Dames
328 ODEURS JEAN CLAUDE 811 1:00:27 8,54 7:01 23 Vétérans 3
329 ZONDERMAN LAURENCE 320 1:02:41 8,23 7:17 21 Ainées 1